Location: Umburanas
(4.5000°S, 37.9667°W)
Time: 10:49:23
(UTC+00:00)

Centaur AC-112 - Pass Details

Date: 19 November 2019
Orbit: 295 x 20520 km, 26.8° (Epoch: 12 December)

Event Time Altitude Azimuth Distance (km) Brightness Sun altitude
Rises 21:35:08 0° 228° (SW) 3,669 7.9 -16.7°
Reaches altitude 10° 21:40:13 10° 187° (S) 1,497 4.9 -17.8°
Maximum altitude 21:40:56 11° 172° (S) 1,339 4.5 -18.0°
Drops below altitude 10° 21:41:35 10° 156° (SSE) 1,287 4.2 -18.1°
Enters shadow 21:41:37 10° 155° (SSE) 1,287 4.2 -18.2°
